Location: Danville Conservation Area
(38.8674°N, 91.5143°W)
Time: 19:36:11
(UTC-06:00)

N. Korean satellite - Visible Passes

Search period start: 05 December 2021 00:00
Search period end: 15 December 2021 00:00
Orbit: 446 x 495 km, 97.3° (Epoch: 05 December)

Date Brightness Start Highest point End Pass type
(mag) Time Alt. Az. Time Alt. Az. Time Alt. Az.
05 Dec 8.9 04:41:30 10° NE 04:44:13 22° E 04:46:55 10° SSE visible
05 Dec 7.9 06:15:00 10° NNW 06:17:14 17° WNW 06:19:28 10° WSW visible
06 Dec 6.8 05:45:42 10° N 05:48:52 39° WNW 05:52:02 10° SW visible
07 Dec 6.5 05:17:01 10° NNE 05:20:24 76° E 05:23:46 10° S visible
07 Dec 9.6 17:23:35 10° SW 17:26:10 19° W 17:28:45 10° NW visible
08 Dec 8.4 04:48:50 10° NE 04:51:48 28° E 04:54:46 10° SSE visible
08 Dec 8.2 06:22:58 10° NW 06:24:43 14° WNW 06:26:29 10° W visible
09 Dec 9.8 04:21:43 10° ENE 04:23:06 12° E 04:24:28 10° ESE visible
09 Dec 7.1 05:53:21 10° N 05:56:22 30° WNW 05:59:23 10° SW visible
10 Dec 6.2 05:26:14 28° N 05:27:54 82° WNW 05:31:17 10° SSW visible
10 Dec 9.7 17:31:36 10° SW 17:33:43 15° W 17:35:50 10° NW visible
11 Dec 7.9 04:58:04 26° NE 04:59:19 36° E 05:02:28 10° SSE visible
11 Dec 8.4 06:32:11 11° WNW 06:32:11 11° WNW 06:33:08 10° W visible
12 Dec 9.5 04:29:42 14° ENE 04:30:37 15° E 04:32:40 10° SE visible
12 Dec 7.4 06:03:48 25° WNW 06:03:48 25° WNW 06:06:37 10° SW visible
13 Dec 6.3 05:35:19 63° WNW 05:35:20 63° WNW 05:38:42 10° SSW visible
13 Dec 9.9 17:39:47 10° WSW 17:41:13 12° W 17:42:38 10° WNW visible
14 Dec 7.4 05:06:47 46° ESE 05:06:47 46° ESE 05:10:03 10° S visible
14 Dec 8.9 17:09:27 10° SSW 17:12:28 28° W 17:15:29 10° NW visible
